TimeCDT,TemperatureF,Dew PointF,Humidity,Sea Level PressureIn,VisibilityMPH,Wind Direction,Wind SpeedMPH,Gust SpeedMPH,PrecipitationIn,Events,Conditions,WindDirDegrees,DateUTC
12:53 AM,51.1,32.0,48,29.97,10.0,SE,5.8,-,N/A,,Clear,130,2012-11-03 05:53:00
1:53 AM,48.9,33.1,54,29.97,10.0,East,4.6,-,N/A,,Clear,100,2012-11-03 06:53:00
2:53 AM,48.0,33.1,56,29.96,10.0,Calm,Calm,-,N/A,,Clear,0,2012-11-03 07:53:00
3:53 AM,46.9,33.1,59,29.95,10.0,East,3.5,-,N/A,,Clear,90,2012-11-03 08:53:00
4:53 AM,46.9,32.0,56,29.95,10.0,Calm,Calm,-,N/A,,Clear,0,2012-11-03 09:53:00
5:53 AM,46.0,33.1,61,29.96,10.0,Calm,Calm,-,N/A,,Clear,0,2012-11-03 10:53:00
6:53 AM,45.0,33.1,63,29.95,10.0,SE,3.5,-,N/A,,Clear,140,2012-11-03 11:53:00
7:53 AM,44.1,34.0,68,29.96,10.0,Calm,Calm,-,N/A,,Clear,0,2012-11-03 12:53:00
8:53 AM,50.0,37.0,61,29.99,10.0,West,3.5,-,N/A,,Clear,270,2012-11-03 13:53:00
9:53 AM,55.9,42.1,60,29.98,10.0,West,11.5,17.3,N/A,,Clear,260,2012-11-03 14:53:00
10:53 AM,60.1,43.0,53,30.00,10.0,West,10.4,-,N/A,,Clear,270,2012-11-03 15:53:00
11:53 AM,63.0,43.0,48,30.00,10.0,WNW,15.0,23.0,N/A,,Clear,290,2012-11-03 16:53:00
12:53 PM,63.0,41.0,45,30.01,10.0,NW,12.7,17.3,N/A,,Clear,310,2012-11-03 17:53:00
1:53 PM,63.0,39.9,43,30.02,10.0,NW,10.4,20.7,N/A,,Clear,320,2012-11-03 18:53:00
2:53 PM,63.0,39.9,43,30.03,10.0,NNW,11.5,19.6,N/A,,Clear,330,2012-11-03 19:53:00
3:53 PM,62.1,39.9,44,30.04,10.0,NNW,12.7,-,N/A,,Clear,330,2012-11-03 20:53:00
4:53 PM,60.1,39.0,46,30.06,10.0,NNW,9.2,-,N/A,,Clear,340,2012-11-03 21:53:00
5:53 PM,55.9,39.0,53,30.08,10.0,North,10.4,-,N/A,,Clear,350,2012-11-03 22:53:00
6:53 PM,53.1,37.9,57,30.10,10.0,NNW,6.9,-,N/A,,Clear,340,2012-11-03 23:53:00
7:53 PM,51.1,37.9,61,30.12,10.0,North,9.2,-,N/A,,Clear,350,2012-11-04 00:53:00
8:53 PM,48.9,37.0,64,30.13,10.0,North,9.2,-,N/A,,Clear,360,2012-11-04 01:53:00
9:53 PM,46.0,36.0,68,30.16,10.0,North,8.1,-,N/A,,Clear,10,2012-11-04 02:53:00
10:53 PM,43.0,36.0,76,30.16,10.0,North,5.8,-,N/A,,Clear,10,2012-11-04 03:53:00
11:53 PM,42.1,35.1,76,30.17,10.0,North,3.5,-,N/A,,Clear,10,2012-11-04 04:53:00